Time,TemperatureF,DewpointF,PressureIn,WindDirection,WindDirectionDegrees,WindSpeedMPH,WindSpeedGustMPH,Humidity,HourlyPrecipIn,Conditions,Clouds,dailyrainin,SolarRadiationWatts/m^2,SoftwareType,DateUTC
2013-05-21 00:02:00,46.4,45.3,29.71,North,355,20.0,33.0,96,0.01,,-RA,0.00,0.00,VWS V14.00,2013-05-21 05:02:00,
2013-05-21 00:07:00,46.3,45.2,29.71,North,5,25.0,33.0,96,0.01,,-RA,0.00,0.00,VWS V14.00,2013-05-21 05:07:00,
2013-05-21 00:12:00,46.3,45.2,29.71,North,360,22.0,34.0,96,0.01,,-RA,0.00,0.00,VWS V14.00,2013-05-21 05:12:00,
2013-05-21 00:17:00,46.2,45.1,29.71,North,355,28.0,34.0,96,0.01,,-RA,0.00,0.00,VWS V14.00,2013-05-21 05:17:00,
2013-05-21 00:22:00,46.1,45.0,29.71,North,355,23.0,38.0,96,0.01,,-RA,0.00,0.00,VWS V14.00,2013-05-21 05:22:00,
2013-05-21 00:27:00,46.0,44.9,29.71,NNW,344,20.0,38.0,96,0.01,,-RA,0.00,0.00,VWS V14.00,2013-05-21 05:27:00,
2013-05-21 00:32:00,46.0,44.9,29.71,North,5,27.0,38.0,96,0.01,,-RA,0.00,0.00,VWS V14.00,2013-05-21 05:32:00,
2013-05-21 00:37:00,45.9,44.8,29.71,North,10,33.0,38.0,96,0.01,,-RA,0.00,0.00,VWS V14.00,2013-05-21 05:37:00,
2013-05-21 00:42:00,45.9,44.5,29.72,North,5,21.0,38.0,95,0.01,,-RA,0.00,0.00,VWS V14.00,2013-05-21 05:42:00,
2013-05-21 00:47:00,45.8,44.5,29.72,North,360,28.0,38.0,95,0.01,,-RA,0.00,0.00,VWS V14.00,2013-05-21 05:47:00,
2013-05-21 00:53:00,45.8,44.5,29.72,NNW,345,25.0,38.0,95,0.01,,-RA,0.00,0.00,VWS V14.00,2013-05-21 05:53:00,
2013-05-21 00:58:00,45.7,44.3,29.71,North,10,27.0,38.0,95,0.01,,-RA,0.00,0.00,VWS V14.00,2013-05-21 05:58:00,
2013-05-21 01:03:00,45.6,44.2,29.72,North,355,21.0,38.0,95,0.00,,-RA,0.00,0.00,VWS V14.00,2013-05-21 06:03:00,
2013-05-21 01:08:00,45.6,44.2,29.72,North,355,20.0,38.0,95,0.00,,-RA,0.00,0.00,VWS V14.00,2013-05-21 06:08:00,
2013-05-21 01:13:00,45.6,44.2,29.72,North,360,35.0,38.0,95,0.00,,-RA,0.00,0.00,VWS V14.00,2013-05-21 06:13:00,
2013-05-21 01:18:00,45.6,44.2,29.73,North,5,24.0,38.0,95,0.00,,-RA,0.00,0.00,VWS V14.00,2013-05-21 06:18:00,
2013-05-21 01:23:00,45.5,44.2,29.72,North,360,22.0,38.0,95,0.00,,-RA,0.00,0.00,VWS V14.00,2013-05-21 06:23:00,
2013-05-21 01:28:00,45.4,44.0,29.72,NNE,17,24.0,38.0,95,0.00,,-RA,0.00,0.00,VWS V14.00,2013-05-21 06:28:00,
2013-05-21 01:33:00,45.4,44.0,29.72,North,10,28.0,39.0,95,0.00,,-RA,0.00,0.00,VWS V14.00,2013-05-21 06:33:00,
2013-05-21 01:38:00,45.4,44.0,29.72,North,5,25.0,39.0,95,0.00,,-RA,0.00,0.00,VWS V14.00,2013-05-21 06:38:00,
2013-05-21 01:43:00,45.3,44.0,29.72,North,355,30.0,39.0,95,0.00,,-RA,0.00,0.00,VWS V14.00,2013-05-21 06:43:00,
2013-05-21 01:48:00,45.2,43.9,29.72,North,5,23.0,39.0,95,0.00,,-RA,0.00,0.00,VWS V14.00,2013-05-21 06:48:00,
2013-05-21 01:53:00,45.2,43.9,29.73,North,5,30.0,39.0,95,0.00,,-RA,0.00,0.00,VWS V14.00,2013-05-21 06:53:00,
2013-05-21 01:58:00,45.1,43.8,29.73,North,351,17.0,39.0,95,0.00,,-RA,0.00,0.00,VWS V14.00,2013-05-21 06:58:00,
2013-05-21 02:03:00,45.1,43.8,29.73,North,5,26.0,32.0,95,0.00,,-RA,0.00,0.00,VWS V14.00,2013-05-21 07:03:00,
2013-05-21 02:08:00,45.1,43.8,29.73,North,5,22.0,32.0,95,0.00,,-RA,0.00,0.00,VWS V14.00,2013-05-21 07:08:00,
2013-05-21 02:13:00,44.9,43.6,29.73,North,355,26.0,36.0,95,0.00,,-RA,0.00,0.00,VWS V14.00,2013-05-21 07:13:00,
2013-05-21 02:18:00,44.9,43.6,29.73,North,5,20.0,36.0,95,0.00,,-RA,0.00,0.00,VWS V14.00,2013-05-21 07:18:00,
2013-05-21 02:23:00,44.8,43.5,29.73,North,355,31.0,36.0,95,0.00,,-RA,0.00,0.00,VWS V14.00,2013-05-21 07:23:00,
2013-05-21 02:28:00,44.8,43.5,29.73,North,5,21.0,36.0,95,0.00,,-RA,0.00,0.00,VWS V14.00,2013-05-21 07:28:00,
2013-05-21 02:33:00,44.7,43.4,29.74,NNW,339,24.0,32.0,95,0.00,,-RA,0.00,0.00,VWS V14.00,2013-05-21 07:33:00,
2013-05-21 02:38:00,44.6,43.3,29.74,North,5,20.0,32.0,95,0.00,,-RA,0.00,0.00,VWS V14.00,2013-05-21 07:38:00,
2013-05-21 02:43:00,44.6,43.3,29.74,North,355,20.0,33.0,95,0.00,,-RA,0.00,0.00,VWS V14.00,2013-05-21 07:43:00,
2013-05-21 02:48:00,44.5,43.2,29.74,North,355,29.0,34.0,95,0.00,,-RA,0.00,0.00,VWS V14.00,2013-05-21 07:48:00,
2013-05-21 02:53:00,44.5,43.2,29.74,North,360,15.0,34.0,95,0.00,,-RA,0.00,0.00,VWS V14.00,2013-05-21 07:53:00,
2013-05-21 02:58:00,44.4,43.1,29.74,North,11,19.0,34.0,95,0.00,,-RA,0.00,0.00,VWS V14.00,2013-05-21 07:58:00,
2013-05-21 03:03:00,44.4,43.1,29.74,North,355,21.0,29.0,95,0.00,,-RA,0.00,0.00,VWS V14.00,2013-05-21 08:03:00,
2013-05-21 03:08:00,44.4,43.1,29.74,North,11,28.0,34.0,95,0.00,,-RA,0.00,0.00,VWS V14.00,2013-05-21 08:08:00,
2013-05-21 03:13:00,44.4,43.1,29.74,North,355,25.0,34.0,95,0.00,,-RA,0.00,0.00,VWS V14.00,2013-05-21 08:13:00,
2013-05-21 03:18:00,44.4,43.1,29.74,North,355,27.0,34.0,95,0.00,,-RA,0.00,0.00,VWS V14.00,2013-05-21 08:18:00,
2013-05-21 03:23:00,44.3,43.0,29.74,North,5,20.0,34.0,95,0.00,,-RA,0.00,0.00,VWS V14.00,2013-05-21 08:23:00,
2013-05-21 03:29:00,44.3,43.0,29.74,North,5,20.0,35.0,95,0.00,,-RA,0.00,0.00,VWS V14.00,2013-05-21 08:29:00,
2013-05-21 03:34:00,44.3,43.0,29.74,North,355,22.0,32.0,95,0.00,,-RA,0.00,0.00,VWS V14.00,2013-05-21 08:34:00,
2013-05-21 03:39:00,44.3,43.0,29.75,North,11,22.0,35.0,95,0.00,,-RA,0.00,0.00,VWS V14.00,2013-05-21 08:39:00,
2013-05-21 03:44:00,44.2,42.9,29.75,NNE,19,23.0,35.0,95,0.00,,-RA,0.00,0.00,VWS V14.00,2013-05-21 08:44:00,
2013-05-21 03:49:00,44.2,42.9,29.75,North,9,22.0,35.0,95,0.00,,-RA,0.00,0.00,VWS V14.00,2013-05-21 08:49:00,
2013-05-21 03:54:00,44.2,42.9,29.75,North,360,21.0,35.0,95,0.00,,-RA,0.00,0.00,VWS V14.00,2013-05-21 08:54:00,
2013-05-21 03:59:00,44.1,42.8,29.75,North,5,24.0,35.0,95,0.00,,-RA,0.00,0.00,VWS V14.00,2013-05-21 08:59:00,
2013-05-21 04:04:00,44.0,42.7,29.75,North,5,22.0,30.0,95,0.00,,-RA,0.00,0.00,VWS V14.00,2013-05-21 09:04:00,
2013-05-21 04:09:00,43.9,42.6,29.76,North,360,17.0,32.0,95,0.00,,-RA,0.00,0.00,VWS V14.00,2013-05-21 09:09:00,
2013-05-21 04:14:00,43.8,42.5,29.76,North,355,22.0,32.0,95,0.00,,-RA,0.00,0.00,VWS V14.00,2013-05-21 09:14:00,
2013-05-21 04:19:00,43.8,42.5,29.75,North,355,23.0,32.0,95,0.00,,-RA,0.00,0.00,VWS V14.00,2013-05-21 09:19:00,
2013-05-21 04:24:00,43.7,42.4,29.76,North,5,26.0,32.0,95,0.00,,-RA,0.00,0.00,VWS V14.00,2013-05-21 09:24:00,
2013-05-21 04:29:00,43.7,42.4,29.76,North,11,22.0,32.0,95,0.00,,-RA,0.00,0.00,VWS V14.00,2013-05-21 09:29:00,
2013-05-21 04:34:00,43.6,42.3,29.76,North,360,25.0,32.0,95,0.00,,-RA,0.00,0.00,VWS V14.00,2013-05-21 09:34:00,
2013-05-21 04:39:00,43.6,42.3,29.76,NNE,18,16.0,32.0,95,0.00,,-RA,0.00,0.00,VWS V14.00,2013-05-21 09:39:00,
2013-05-21 04:44:00,43.5,42.2,29.76,North,11,27.0,32.0,95,0.00,,-RA,0.00,0.00,VWS V14.00,2013-05-21 09:44:00,
2013-05-21 04:49:00,43.5,42.2,29.76,North,360,25.0,32.0,95,0.00,,-RA,0.00,0.00,VWS V14.00,2013-05-21 09:49:00,
2013-05-21 04:54:00,43.4,42.1,29.76,North,10,31.0,37.0,95,0.00,,-RA,0.00,0.00,VWS V14.00,2013-05-21 09:54:00,
2013-05-21 04:59:00,43.4,42.1,29.76,North,5,16.0,37.0,95,0.00,,-RA,0.00,0.00,VWS V14.00,2013-05-21 09:59:00,
2013-05-21 05:04:00,43.4,42.1,29.77,North,5,18.0,29.0,95,0.00,,-RA,0.00,0.00,VWS V14.00,2013-05-21 10:04:00,
2013-05-21 05:09:00,43.3,42.0,29.77,North,360,18.0,35.0,95,0.00,,-RA,0.00,0.00,VWS V14.00,2013-05-21 10:09:00,
2013-05-21 05:14:00,43.4,42.1,29.77,North,5,21.0,35.0,95,0.00,,-RA,0.00,0.00,VWS V14.00,2013-05-21 10:14:00,
2013-05-21 05:19:00,43.3,41.7,29.77,NNE,17,25.0,35.0,94,0.00,,-RA,0.00,0.00,VWS V14.00,2013-05-21 10:19:00,
2013-05-21 05:24:00,43.3,41.7,29.78,NNE,17,21.0,35.0,94,0.00,,-RA,0.00,0.00,VWS V14.00,2013-05-21 10:24:00,
2013-05-21 05:29:00,43.3,41.7,29.78,North,5,21.0,35.0,94,0.00,,-RA,0.00,0.00,VWS V14.00,2013-05-21 10:29:00,
2013-05-21 05:34:00,43.2,41.6,29.78,North,5,16.0,28.0,94,0.00,,-RA,0.00,0.00,VWS V14.00,2013-05-21 10:34:00,
2013-05-21 05:39:00,43.2,41.9,29.78,North,5,21.0,30.0,95,0.00,,-RA,0.00,0.00,VWS V14.00,2013-05-21 10:39:00,
2013-05-21 05:44:00,43.1,41.5,29.78,NNE,14,24.0,35.0,94,0.00,,OVC014,0.00,0.00,VWS V14.00,2013-05-21 10:44:00,
2013-05-21 05:49:00,43.1,41.5,29.78,North,5,19.0,35.0,94,0.00,,OVC014,0.00,0.00,VWS V14.00,2013-05-21 10:49:00,
2013-05-21 05:54:00,43.0,41.4,29.78,NNE,18,14.0,35.0,94,0.00,,OVC014,0.00,0.00,VWS V14.00,2013-05-21 10:54:00,
2013-05-21 05:59:00,42.9,41.3,29.78,NNE,19,21.0,35.0,94,0.00,,OVC014,0.00,0.00,VWS V14.00,2013-05-21 10:59:00,
2013-05-21 06:04:00,42.9,41.3,29.78,North,360,20.0,29.0,94,0.00,,OVC014,0.00,0.00,VWS V14.00,2013-05-21 11:04:00,
2013-05-21 06:09:00,42.9,41.3,29.79,NNE,23,27.0,29.0,94,0.00,,OVC014,0.00,0.00,VWS V14.00,2013-05-21 11:09:00,
2013-05-21 06:14:00,42.8,41.2,29.79,North,5,19.0,29.0,94,0.00,,OVC014,0.00,0.00,VWS V14.00,2013-05-21 11:14:00,
2013-05-21 06:19:00,42.8,41.2,29.79,North,360,13.0,29.0,94,0.00,,OVC014,0.00,5.00,VWS V14.00,2013-05-21 11:19:00,
2013-05-21 06:25:00,42.7,41.1,29.79,NNE,17,19.0,29.0,94,0.00,,OVC014,0.00,5.00,VWS V14.00,2013-05-21 11:25:00,
2013-05-21 06:30:00,42.8,41.2,29.80,NNE,21,17.0,29.0,94,0.00,,OVC014,0.00,5.00,VWS V14.00,2013-05-21 11:30:00,
2013-05-21 06:35:00,42.8,41.2,29.80,North,11,21.0,27.0,94,0.00,,OVC014,0.00,5.00,VWS V14.00,2013-05-21 11:35:00,
2013-05-21 06:40:00,42.7,41.1,29.80,NNE,20,23.0,30.0,94,0.00,,OVC014,0.00,7.00,VWS V14.00,2013-05-21 11:40:00,
2013-05-21 06:45:00,42.7,41.1,29.80,NNE,12,20.0,31.0,94,0.00,,OVC014,0.00,11.00,VWS V14.00,2013-05-21 11:45:00,
2013-05-21 06:50:00,42.6,41.0,29.80,North,9,27.0,33.0,94,0.00,,OVC014,0.00,12.00,VWS V14.00,2013-05-21 11:50:00,
2013-05-21 06:55:00,42.7,41.1,29.81,North,9,19.0,33.0,94,0.00,,OVC014,0.00,16.00,VWS V14.00,2013-05-21 11:55:00,
2013-05-21 07:00:00,42.6,41.0,29.81,NNE,24,21.0,33.0,94,0.00,,OVC014,0.00,18.00,VWS V14.00,2013-05-21 12:00:00,
2013-05-21 07:05:00,42.6,41.0,29.81,North,5,15.0,26.0,94,0.00,,OVC014,0.00,19.00,VWS V14.00,2013-05-21 12:05:00,
2013-05-21 07:10:00,42.7,41.1,29.81,North,9,19.0,26.0,94,0.00,,OVC014,0.00,19.00,VWS V14.00,2013-05-21 12:10:00,
2013-05-21 07:15:00,42.7,41.1,29.81,NNE,15,32.0,32.0,94,0.00,,OVC014,0.00,23.00,VWS V14.00,2013-05-21 12:15:00,
2013-05-21 07:20:00,42.7,41.1,29.82,North,5,21.0,32.0,94,0.00,,OVC014,0.00,21.00,VWS V14.00,2013-05-21 12:20:00,
2013-05-21 07:25:00,42.7,41.1,29.82,North,5,15.0,32.0,94,0.00,,OVC014,0.00,12.00,VWS V14.00,2013-05-21 12:25:00,
2013-05-21 07:30:00,42.7,41.1,29.82,NNE,14,16.0,32.0,94,0.00,,OVC014,0.00,11.00,VWS V14.00,2013-05-21 12:30:00,
2013-05-21 07:35:00,42.5,41.2,29.82,NNE,13,15.0,25.0,95,0.00,,-RA,0.00,14.00,VWS V14.00,2013-05-21 12:35:00,
2013-05-21 07:40:00,42.5,41.2,29.83,North,10,17.0,25.0,95,0.00,,-RA,0.00,19.00,VWS V14.00,2013-05-21 12:40:00,
2013-05-21 07:45:00,42.5,41.2,29.83,North,11,16.0,25.0,95,0.00,,-RA,0.00,19.00,VWS V14.00,2013-05-21 12:45:00,
2013-05-21 07:50:00,42.5,40.9,29.83,North,5,15.0,25.0,94,0.00,,-RA,0.00,23.00,VWS V14.00,2013-05-21 12:50:00,
2013-05-21 07:55:00,42.5,40.9,29.83,North,5,12.0,25.0,94,0.00,,-RA,0.00,19.00,VWS V14.00,2013-05-21 12:55:00,
2013-05-21 08:00:00,42.5,40.9,29.83,NNE,24,19.0,26.0,94,0.00,,-RA,0.00,25.00,VWS V14.00,2013-05-21 13:00:00,
2013-05-21 08:05:00,42.5,40.9,29.83,NNE,22,22.0,28.0,94,0.00,,-RA,0.00,26.00,VWS V14.00,2013-05-21 13:05:00,
2013-05-21 08:10:00,42.6,41.0,29.83,North,11,13.0,28.0,94,0.00,,-RA,0.00,30.00,VWS V14.00,2013-05-21 13:10:00,
2013-05-21 08:15:00,42.5,40.9,29.84,North,11,22.0,28.0,94,0.00,,-RA,0.00,37.00,VWS V14.00,2013-05-21 13:15:00,
2013-05-21 08:20:00,42.5,40.9,29.84,NNE,18,25.0,28.0,94,0.00,,-RA,0.00,49.00,VWS V14.00,2013-05-21 13:20:00,
2013-05-21 08:25:00,42.6,41.0,29.84,NNE,15,15.0,28.0,94,0.00,,-RA,0.00,35.00,VWS V14.00,2013-05-21 13:25:00,
2013-05-21 08:30:00,42.6,41.0,29.84,NNE,17,19.0,20.0,94,0.00,,-RA,0.00,58.00,VWS V14.00,2013-05-21 13:30:00,
2013-05-21 08:35:00,42.6,41.0,29.84,NNE,15,19.0,25.0,94,0.00,,-RA,0.00,49.00,VWS V14.00,2013-05-21 13:35:00,
2013-05-21 08:40:00,42.5,40.9,29.84,NNE,15,12.0,27.0,94,0.00,,-RA,0.00,47.00,VWS V14.00,2013-05-21 13:40:00,
2013-05-21 08:45:00,42.6,41.3,29.84,North,360,12.0,27.0,95,0.00,,OVC011,0.00,63.00,VWS V14.00,2013-05-21 13:45:00,
2013-05-21 08:50:00,42.7,41.4,29.84,North,360,15.0,27.0,95,0.00,,OVC011,0.00,62.00,VWS V14.00,2013-05-21 13:50:00,
2013-05-21 08:55:00,42.5,41.2,29.84,NNE,26,18.0,27.0,95,0.00,,OVC011,0.00,58.00,VWS V14.00,2013-05-21 13:55:00,
2013-05-21 09:00:00,42.6,41.3,29.85,NNE,13,16.0,19.0,95,0.00,,OVC011,0.00,42.00,VWS V14.00,2013-05-21 14:00:00,
2013-05-21 09:05:00,42.7,41.4,29.85,North,9,11.0,19.0,95,0.00,,OVC011,0.00,58.00,VWS V14.00,2013-05-21 14:05:00,
2013-05-21 09:10:00,42.8,41.5,29.85,North,355,9.0,23.0,95,0.00,,OVC011,0.00,49.00,VWS V14.00,2013-05-21 14:10:00,
2013-05-21 09:16:00,42.8,41.2,29.85,North,5,20.0,27.0,94,0.00,,-RA,0.00,81.00,VWS V14.00,2013-05-21 14:16:00,
2013-05-21 09:21:00,42.9,41.3,29.85,North,11,16.0,27.0,94,0.00,,-RA,0.00,65.00,VWS V14.00,2013-05-21 14:21:00,
2013-05-21 09:26:00,42.9,41.3,29.85,North,5,16.0,27.0,94,0.00,,OVC011,0.00,81.00,VWS V14.00,2013-05-21 14:26:00,
2013-05-21 09:31:00,43.1,41.8,29.85,NNE,13,13.0,18.0,95,0.00,,OVC011,0.00,65.00,VWS V14.00,2013-05-21 14:31:00,
2013-05-21 09:36:00,42.9,41.3,29.85,North,360,15.0,21.0,94,0.00,,OVC011,0.00,90.00,VWS V14.00,2013-05-21 14:36:00,
2013-05-21 09:41:00,43.0,41.7,29.85,North,5,21.0,23.0,95,0.00,,OVC011,0.00,79.00,VWS V14.00,2013-05-21 14:41:00,
2013-05-21 09:46:00,42.8,41.5,29.85,North,360,25.0,25.0,95,0.00,,OVC010,0.00,76.00,VWS V14.00,2013-05-21 14:46:00,
2013-05-21 09:51:00,42.8,41.5,29.86,NNE,12,21.0,26.0,95,0.00,,OVC010,0.00,91.00,VWS V14.00,2013-05-21 14:51:00,
2013-05-21 09:56:00,42.9,41.3,29.86,NNE,16,16.0,26.0,94,0.00,,OVC010,0.00,102.00,VWS V14.00,2013-05-21 14:56:00,
2013-05-21 10:01:00,43.1,41.5,29.86,North,350,16.0,18.0,94,0.00,,OVC010,0.00,72.00,VWS V14.00,2013-05-21 15:01:00,
2013-05-21 10:06:00,42.9,41.3,29.86,North,5,18.0,24.0,94,0.00,,OVC010,0.00,63.00,VWS V14.00,2013-05-21 15:06:00,
2013-05-21 10:11:00,42.8,41.2,29.86,North,11,16.0,24.0,94,0.00,,OVC010,0.00,74.00,VWS V14.00,2013-05-21 15:11:00,
2013-05-21 10:16:00,42.6,41.3,29.87,North,355,17.0,26.0,95,0.00,,OVC010,0.00,81.00,VWS V14.00,2013-05-21 15:16:00,
2013-05-21 10:21:00,42.6,41.3,29.87,North,5,20.0,26.0,95,0.00,,OVC010,0.00,83.00,VWS V14.00,2013-05-21 15:21:00,
2013-05-21 10:26:00,42.7,41.4,29.87,North,360,13.0,26.0,95,0.00,,OVC010,0.00,77.00,VWS V14.00,2013-05-21 15:26:00,
2013-05-21 10:31:00,42.8,41.5,29.87,North,11,14.0,23.0,95,0.00,,OVC010,0.00,90.00,VWS V14.00,2013-05-21 15:31:00,
2013-05-21 10:36:00,42.8,41.5,29.87,NNE,19,21.0,27.0,95,0.00,,OVC010,0.00,127.00,VWS V14.00,2013-05-21 15:36:00,
2013-05-21 10:41:00,42.8,41.5,29.87,North,5,14.0,27.0,95,0.00,,OVC010,0.00,72.00,VWS V14.00,2013-05-21 15:41:00,
2013-05-21 10:46:00,42.9,41.6,29.87,North,355,12.0,27.0,95,0.00,,OVC010,0.00,72.00,VWS V14.00,2013-05-21 15:46:00,
2013-05-21 10:51:00,42.9,41.6,29.87,North,5,13.0,27.0,95,0.00,,OVC010,0.00,100.00,VWS V14.00,2013-05-21 15:51:00,
2013-05-21 10:56:00,43.1,41.8,29.87,NNE,19,21.0,27.0,95,0.00,,OVC010,0.00,144.00,VWS V14.00,2013-05-21 15:56:00,
2013-05-21 11:01:00,43.1,41.8,29.87,North,5,18.0,22.0,95,0.00,,OVC010,0.00,169.00,VWS V14.00,2013-05-21 16:01:00,
2013-05-21 11:06:00,43.4,42.1,29.87,North,360,15.0,26.0,95,0.00,,OVC010,0.00,192.00,VWS V14.00,2013-05-21 16:06:00,
2013-05-21 11:11:00,43.2,41.9,29.87,NNE,15,22.0,26.0,95,0.00,,OVC010,0.00,142.00,VWS V14.00,2013-05-21 16:11:00,
2013-05-21 11:16:00,43.2,41.9,29.88,North,5,23.0,26.0,95,0.00,,OVC009,0.00,123.00,VWS V14.00,2013-05-21 16:16:00,
2013-05-21 11:21:00,43.1,41.8,29.87,North,5,23.0,26.0,95,0.00,,OVC009,0.00,116.00,VWS V14.00,2013-05-21 16:21:00,
2013-05-21 11:26:00,43.1,41.8,29.87,North,5,16.0,26.0,95,0.00,,OVC009,0.00,88.00,VWS V14.00,2013-05-21 16:26:00,
2013-05-21 11:31:00,43.1,41.8,29.87,North,5,20.0,22.0,95,0.00,,OVC009,0.00,105.00,VWS V14.00,2013-05-21 16:31:00,
2013-05-21 11:36:00,43.3,42.0,29.87,North,5,21.0,25.0,95,0.00,,OVC009,0.00,135.00,VWS V14.00,2013-05-21 16:36:00,
2013-05-21 11:41:00,43.5,42.2,29.88,North,5,19.0,25.0,95,0.00,,OVC008,0.00,111.00,VWS V14.00,2013-05-21 16:41:00,
2013-05-21 11:46:00,43.5,41.9,29.88,NNE,16,20.0,25.0,94,0.00,,OVC008,0.00,121.00,VWS V14.00,2013-05-21 16:46:00,
2013-05-21 11:51:00,43.7,42.4,29.88,North,360,13.0,26.0,95,0.00,,OVC008,0.00,169.00,VWS V14.00,2013-05-21 16:51:00,
2013-05-21 11:57:00,43.7,42.4,29.88,NNE,19,21.0,26.0,95,0.00,,OVC008,0.00,104.00,VWS V14.00,2013-05-21 16:57:00,
2013-05-21 12:02:00,43.5,42.2,29.88,North,355,18.0,22.0,95,0.00,,OVC008,0.00,105.00,VWS V14.00,2013-05-21 17:02:00,
2013-05-21 12:07:00,43.5,42.2,29.88,North,11,16.0,25.0,95,0.00,,OVC011,0.00,98.00,VWS V14.00,2013-05-21 17:07:00,
2013-05-21 12:12:00,43.4,42.1,29.88,North,5,17.0,25.0,95,0.00,,OVC011,0.00,97.00,VWS V14.00,2013-05-21 17:12:00,
2013-05-21 12:17:00,43.4,42.1,29.88,North,5,19.0,26.0,95,0.00,,OVC011,0.00,144.00,VWS V14.00,2013-05-21 17:17:00,
2013-05-21 12:22:00,43.6,42.3,29.88,NNE,15,23.0,26.0,95,0.00,,OVC011,0.00,105.00,VWS V14.00,2013-05-21 17:22:00,
2013-05-21 12:27:00,43.7,42.4,29.88,North,5,17.0,26.0,95,0.00,,OVC011,0.00,130.00,VWS V14.00,2013-05-21 17:27:00,
2013-05-21 12:32:00,43.9,42.6,29.89,North,355,13.0,19.0,95,0.00,,OVC010,0.00,102.00,VWS V14.00,2013-05-21 17:32:00,
2013-05-21 12:37:00,43.8,42.5,29.89,North,350,16.0,22.0,95,0.00,,OVC010,0.00,107.00,VWS V14.00,2013-05-21 17:37:00,
2013-05-21 12:42:00,43.9,42.6,29.89,North,360,22.0,25.0,95,0.00,,OVC010,0.00,128.00,VWS V14.00,2013-05-21 17:42:00,
2013-05-21 12:47:00,44.0,42.7,29.88,North,5,22.0,25.0,95,0.00,,OVC010,0.00,120.00,VWS V14.00,2013-05-21 17:47:00,
2013-05-21 12:52:00,44.1,42.8,29.88,NNW,343,22.0,26.0,95,0.00,,OVC010,0.00,190.00,VWS V14.00,2013-05-21 17:52:00,
2013-05-21 12:57:00,44.4,43.1,29.88,North,351,17.0,26.0,95,0.00,,OVC010,0.00,130.00,VWS V14.00,2013-05-21 17:57:00,
2013-05-21 13:02:00,44.4,43.1,29.89,North,5,15.0,21.0,95,0.00,,OVC010,0.00,107.00,VWS V14.00,2013-05-21 18:02:00,
2013-05-21 13:07:00,44.3,43.0,29.89,North,360,18.0,24.0,95,0.00,,OVC010,0.00,125.00,VWS V14.00,2013-05-21 18:07:00,
2013-05-21 13:12:00,44.3,43.0,29.89,North,355,18.0,24.0,95,0.00,,OVC010,0.00,148.00,VWS V14.00,2013-05-21 18:12:00,
2013-05-21 13:17:00,44.5,43.2,29.89,North,355,18.0,24.0,95,0.00,,OVC010,0.00,114.00,VWS V14.00,2013-05-21 18:17:00,
2013-05-21 13:22:00,44.5,43.2,29.89,NNW,340,19.0,26.0,95,0.00,,OVC010,0.00,137.00,VWS V14.00,2013-05-21 18:22:00,
2013-05-21 13:27:00,44.3,42.7,29.89,North,5,20.0,26.0,94,0.00,,OVC010,0.00,127.00,VWS V14.00,2013-05-21 18:27:00,
2013-05-21 13:32:00,44.4,43.1,29.89,North,355,20.0,27.0,95,0.00,,OVC011,0.00,151.00,VWS V14.00,2013-05-21 18:32:00,
2013-05-21 13:37:00,44.6,43.0,29.89,NNE,25,22.0,27.0,94,0.00,,OVC011,0.00,183.00,VWS V14.00,2013-05-21 18:37:00,
2013-05-21 13:42:00,44.8,43.2,29.89,NNE,12,20.0,27.0,94,0.00,,OVC011,0.00,160.00,VWS V14.00,2013-05-21 18:42:00,
2013-05-21 13:47:00,45.0,43.4,29.89,North,5,16.0,27.0,94,0.00,,OVC011,0.00,109.00,VWS V14.00,2013-05-21 18:47:00,
2013-05-21 13:52:00,44.7,42.8,29.90,North,5,17.0,27.0,93,0.00,,OVC011,0.00,113.00,VWS V14.00,2013-05-21 18:52:00,
2013-05-21 13:57:00,44.6,43.0,29.90,NNE,13,14.0,27.0,94,0.00,,OVC011,0.00,109.00,VWS V14.00,2013-05-21 18:57:00,
2013-05-21 14:03:00,44.8,43.2,29.90,North,11,9.0,17.0,94,0.00,,OVC011,0.00,95.00,VWS V14.00,2013-05-21 19:03:00,
2013-05-21 14:08:00,44.8,43.2,29.90,North,360,20.0,26.0,94,0.00,,OVC011,0.00,90.00,VWS V14.00,2013-05-21 19:08:00,
2013-05-21 14:13:00,44.7,42.8,29.90,North,5,19.0,27.0,93,0.00,,OVC011,0.00,90.00,VWS V14.00,2013-05-21 19:13:00,
2013-05-21 14:18:00,44.8,42.6,29.90,NE,36,16.0,27.0,92,0.00,,OVC011,0.00,84.00,VWS V14.00,2013-05-21 19:18:00,
2013-05-21 14:23:00,44.9,42.7,29.91,North,9,20.0,27.0,92,0.00,,OVC011,0.00,100.00,VWS V14.00,2013-05-21 19:23:00,
2013-05-21 14:28:00,45.1,42.9,29.90,North,5,21.0,27.0,92,0.00,,OVC011,0.00,98.00,VWS V14.00,2013-05-21 19:28:00,
2013-05-21 14:33:00,45.3,43.1,29.90,North,355,16.0,23.0,92,0.00,,OVC012,0.00,149.00,VWS V14.00,2013-05-21 19:33:00,
2013-05-21 14:38:00,45.5,43.0,29.90,North,9,17.0,28.0,91,0.00,,OVC012,0.00,125.00,VWS V14.00,2013-05-21 19:38:00,
2013-05-21 14:43:00,45.4,42.9,29.90,NNE,19,18.0,28.0,91,0.00,,OVC012,0.00,120.00,VWS V14.00,2013-05-21 19:43:00,
2013-05-21 14:48:00,45.3,42.8,29.91,North,5,18.0,28.0,91,0.00,,OVC012,0.00,93.00,VWS V14.00,2013-05-21 19:48:00,
2013-05-21 14:53:00,45.2,42.7,29.91,North,5,14.0,28.0,91,0.00,,OVC012,0.00,93.00,VWS V14.00,2013-05-21 19:53:00,
2013-05-21 14:58:00,45.3,43.1,29.91,North,355,17.0,28.0,92,0.00,,OVC012,0.00,91.00,VWS V14.00,2013-05-21 19:58:00,
2013-05-21 15:03:00,45.4,42.9,29.91,North,11,13.0,17.0,91,0.00,,OVC012,0.00,76.00,VWS V14.00,2013-05-21 20:03:00,
2013-05-21 15:08:00,45.4,43.2,29.91,North,350,15.0,20.0,92,0.00,,OVC012,0.00,91.00,VWS V14.00,2013-05-21 20:08:00,
2013-05-21 15:13:00,45.2,42.7,29.91,North,5,19.0,23.0,91,0.00,,OVC012,0.00,95.00,VWS V14.00,2013-05-21 20:13:00,
2013-05-21 15:18:00,45.3,43.1,29.91,North,360,17.0,23.0,92,0.00,,OVC012,0.00,111.00,VWS V14.00,2013-05-21 20:18:00,
2013-05-21 15:23:00,45.5,43.3,29.91,North,355,15.0,23.0,92,0.00,,OVC012,0.00,105.00,VWS V14.00,2013-05-21 20:23:00,
2013-05-21 15:28:00,45.6,43.4,29.91,NNE,21,16.0,23.0,92,0.00,,OVC012,0.00,86.00,VWS V14.00,2013-05-21 20:28:00,
2013-05-21 15:33:00,45.7,43.5,29.92,North,11,16.0,25.0,92,0.00,,OVC012,0.00,91.00,VWS V14.00,2013-05-21 20:33:00,
2013-05-21 15:38:00,45.7,43.5,29.92,NNE,19,18.0,25.0,92,0.00,,OVC012,0.00,107.00,VWS V14.00,2013-05-21 20:38:00,
2013-05-21 15:43:00,45.8,43.6,29.92,North,350,15.0,25.0,92,0.00,,-RA,0.00,148.00,VWS V14.00,2013-05-21 20:43:00,
2013-05-21 15:48:00,45.9,43.7,29.92,NNE,16,15.0,25.0,92,0.00,,-RA,0.00,139.00,VWS V14.00,2013-05-21 20:48:00,
2013-05-21 15:53:00,46.0,43.8,29.92,North,355,14.0,25.0,92,0.00,,OVC015,0.00,105.00,VWS V14.00,2013-05-21 20:53:00,
2013-05-21 15:58:00,46.1,43.9,29.92,North,5,11.0,25.0,92,0.00,,OVC015,0.00,114.00,VWS V14.00,2013-05-21 20:58:00,
2013-05-21 16:03:00,46.2,44.0,29.92,North,360,19.0,19.0,92,0.00,,OVC015,0.00,121.00,VWS V14.00,2013-05-21 21:03:00,
2013-05-21 16:08:00,46.3,44.4,29.92,NNW,342,15.0,19.0,93,0.00,,OVC015,0.00,206.00,VWS V14.00,2013-05-21 21:08:00,
2013-05-21 16:13:00,46.4,44.5,29.92,North,5,14.0,20.0,93,0.00,,OVC015,0.00,162.00,VWS V14.00,2013-05-21 21:13:00,
2013-05-21 16:19:00,46.3,44.4,29.92,North,360,18.0,20.0,93,0.00,,OVC015,0.00,121.00,VWS V14.00,2013-05-21 21:19:00,
2013-05-21 16:24:00,46.3,44.4,29.92,North,11,18.0,24.0,93,0.00,,OVC015,0.00,116.00,VWS V14.00,2013-05-21 21:24:00,
2013-05-21 16:29:00,46.2,44.3,29.92,North,360,10.0,24.0,93,0.00,,OVC015,0.00,104.00,VWS V14.00,2013-05-21 21:29:00,
2013-05-21 16:34:00,46.1,44.2,29.92,NNE,15,16.0,20.0,93,0.00,,OVC015,0.00,84.00,VWS V14.00,2013-05-21 21:34:00,
2013-05-21 16:39:00,46.1,44.5,29.92,NNE,19,18.0,22.0,94,0.00,,OVC015,0.00,98.00,VWS V14.00,2013-05-21 21:39:00,
2013-05-21 16:44:00,46.2,44.6,29.92,North,5,22.0,22.0,94,0.00,,OVC016,0.00,100.00,VWS V14.00,2013-05-21 21:44:00,
2013-05-21 16:49:00,46.3,44.7,29.92,North,360,9.0,22.0,94,0.00,,OVC016,0.00,91.00,VWS V14.00,2013-05-21 21:49:00,
2013-05-21 16:54:00,46.5,44.9,29.92,North,5,14.0,23.0,94,0.00,,OVC016,0.00,100.00,VWS V14.00,2013-05-21 21:54:00,
2013-05-21 16:59:00,46.5,44.9,29.92,North,5,20.0,23.0,94,0.00,,OVC016,0.00,90.00,VWS V14.00,2013-05-21 21:59:00,
2013-05-21 17:04:00,46.5,44.9,29.92,North,5,14.0,24.0,94,0.00,,OVC016,0.00,81.00,VWS V14.00,2013-05-21 22:04:00,
2013-05-21 17:09:00,46.4,44.8,29.92,North,360,17.0,24.0,94,0.00,,OVC016,0.00,70.00,VWS V14.00,2013-05-21 22:09:00,
2013-05-21 17:14:00,46.4,44.8,29.92,North,360,12.0,24.0,94,0.00,,OVC016,0.00,56.00,VWS V14.00,2013-05-21 22:14:00,
2013-05-21 17:19:00,46.3,44.7,29.92,NNE,23,18.0,24.0,94,0.00,,OVC016,0.00,42.00,VWS V14.00,2013-05-21 22:19:00,
2013-05-21 17:24:00,46.3,44.7,29.92,NNE,17,16.0,24.0,94,0.00,,OVC016,0.00,40.00,VWS V14.00,2013-05-21 22:24:00,
2013-05-21 17:29:00,46.3,44.4,29.92,NNE,19,12.0,24.0,93,0.00,,OVC016,0.00,42.00,VWS V14.00,2013-05-21 22:29:00,
2013-05-21 17:34:00,46.4,44.8,29.92,NE,36,16.0,21.0,94,0.00,,OVC016,0.00,46.00,VWS V14.00,2013-05-21 22:34:00,
2013-05-21 17:39:00,46.4,44.5,29.92,NNE,33,11.0,21.0,93,0.00,,OVC016,0.00,37.00,VWS V14.00,2013-05-21 22:39:00,
2013-05-21 17:44:00,46.3,44.4,29.92,NNE,22,17.0,24.0,93,0.00,,OVC022,0.00,42.00,VWS V14.00,2013-05-21 22:44:00,
2013-05-21 17:49:00,46.3,44.7,29.92,NNE,13,16.0,24.0,94,0.00,,OVC022,0.00,53.00,VWS V14.00,2013-05-21 22:49:00,
2013-05-21 17:54:00,46.4,44.8,29.92,NNE,22,12.0,24.0,94,0.00,,OVC022,0.00,56.00,VWS V14.00,2013-05-21 22:54:00,
2013-05-21 17:59:00,46.5,44.9,29.92,NE,38,15.0,24.0,94,0.00,,OVC022,0.00,69.00,VWS V14.00,2013-05-21 22:59:00,
2013-05-21 18:04:00,46.6,45.0,29.92,NNE,29,16.0,22.0,94,0.00,,OVC022,0.00,77.00,VWS V14.00,2013-05-21 23:04:00,
2013-05-21 18:09:00,46.7,44.8,29.92,NE,36,13.0,22.0,93,0.00,,OVC022,0.00,79.00,VWS V14.00,2013-05-21 23:09:00,
2013-05-21 18:14:00,46.9,45.0,29.92,NE,34,12.0,22.0,93,0.00,,OVC022,0.00,70.00,VWS V14.00,2013-05-21 23:14:00,
2013-05-21 18:19:00,47.0,45.1,29.92,NNE,29,11.0,22.0,93,0.00,,OVC022,0.00,67.00,VWS V14.00,2013-05-21 23:19:00,
2013-05-21 18:24:00,47.1,44.9,29.92,NNE,24,11.0,22.0,92,0.00,,OVC022,0.00,62.00,VWS V14.00,2013-05-21 23:24:00,
2013-05-21 18:29:00,47.2,45.0,29.92,NE,39,13.0,22.0,92,0.00,,OVC022,0.00,58.00,VWS V14.00,2013-05-21 23:29:00,
2013-05-21 18:34:00,47.2,45.3,29.93,NE,49,18.0,22.0,93,0.00,,OVC012,0.00,62.00,VWS V14.00,2013-05-21 23:34:00,
2013-05-21 18:39:00,47.3,45.4,29.93,NNE,26,17.0,22.0,93,0.00,,OVC012,0.00,72.00,VWS V14.00,2013-05-21 23:39:00,
2013-05-21 18:44:00,47.4,45.5,29.93,NE,37,10.0,22.0,93,0.00,,OVC022,0.00,44.00,VWS V14.00,2013-05-21 23:44:00,
2013-05-21 18:49:00,47.4,45.5,29.93,NE,40,12.0,22.0,93,0.00,,OVC022,0.00,44.00,VWS V14.00,2013-05-21 23:49:00,
2013-05-21 18:54:00,47.3,45.4,29.93,NE,40,17.0,22.0,93,0.00,,OVC012,0.00,58.00,VWS V14.00,2013-05-21 23:54:00,
2013-05-21 18:59:00,47.4,45.5,29.93,NE,34,9.0,22.0,93,0.00,,OVC012,0.00,53.00,VWS V14.00,2013-05-21 23:59:00,
2013-05-21 19:04:00,47.5,45.6,29.94,NE,43,17.0,20.0,93,0.00,,OVC012,0.00,51.00,VWS V14.00,2013-05-22 00:04:00,
2013-05-21 19:10:00,47.5,45.6,29.94,NNE,33,9.0,20.0,93,0.00,,OVC012,0.00,33.00,VWS V14.00,2013-05-22 00:10:00,
2013-05-21 19:15:00,47.5,45.6,29.94,NNE,17,8.0,20.0,93,0.00,,OVC012,0.00,23.00,VWS V14.00,2013-05-22 00:15:00,
2013-05-21 19:20:00,47.5,45.9,29.94,NNE,26,15.0,20.0,94,0.00,,OVC012,0.00,23.00,VWS V14.00,2013-05-22 00:20:00,
2013-05-21 19:25:00,47.4,45.8,29.94,NE,44,11.0,20.0,94,0.00,,OVC012,0.00,19.00,VWS V14.00,2013-05-22 00:25:00,
2013-05-21 19:30:00,47.4,45.8,29.94,NE,53,18.0,20.0,94,0.00,,OVC012,0.00,19.00,VWS V14.00,2013-05-22 00:30:00,
2013-05-21 19:35:00,47.4,45.8,29.94,NE,41,8.0,16.0,94,0.00,,OVC012,0.00,23.00,VWS V14.00,2013-05-22 00:35:00,
2013-05-21 19:40:00,47.4,45.8,29.94,NNE,29,6.0,16.0,94,0.01,,OVC012,0.01,21.00,VWS V14.00,2013-05-22 00:40:00,
2013-05-21 19:45:00,47.4,46.0,29.94,NNE,25,7.0,16.0,95,0.03,,OVC012,0.03,19.00,VWS V14.00,2013-05-22 00:45:00,
2013-05-21 19:50:00,47.4,46.0,29.94,NE,35,10.0,16.0,95,0.04,,OVC012,0.04,18.00,VWS V14.00,2013-05-22 00:50:00,
2013-05-21 19:55:00,47.3,45.9,29.94,NNE,32,7.0,16.0,95,0.04,,OVC012,0.04,11.00,VWS V14.00,2013-05-22 00:55:00,
2013-05-21 20:00:00,47.3,45.9,29.94,NNE,30,8.0,17.0,95,0.05,,OVC012,0.05,9.00,VWS V14.00,2013-05-22 01:00:00,
2013-05-21 20:05:00,47.3,46.2,29.95,NNE,31,5.0,14.0,96,0.05,,OVC012,0.05,7.00,VWS V14.00,2013-05-22 01:05:00,
2013-05-21 20:10:00,47.3,46.2,29.94,NE,49,15.0,15.0,96,0.05,,OVC012,0.05,7.00,VWS V14.00,2013-05-22 01:10:00,
2013-05-21 20:15:00,47.4,46.3,29.95,NNE,20,8.0,16.0,96,0.05,,OVC012,0.05,7.00,VWS V14.00,2013-05-22 01:15:00,
2013-05-21 20:20:00,47.4,46.3,29.95,NNE,15,10.0,16.0,96,0.05,,OVC012,0.05,7.00,VWS V14.00,2013-05-22 01:20:00,
2013-05-21 20:25:00,47.4,46.3,29.94,NNE,30,8.0,16.0,96,0.05,,OVC012,0.05,9.00,VWS V14.00,2013-05-22 01:25:00,
2013-05-21 20:30:00,47.5,46.4,29.95,NNE,22,10.0,16.0,96,0.05,,OVC012,0.05,7.00,VWS V14.00,2013-05-22 01:30:00,
2013-05-21 20:35:00,47.6,46.5,29.95,NNE,15,8.0,14.0,96,0.05,,-RA,0.05,5.00,VWS V14.00,2013-05-22 01:35:00,
2013-05-21 20:40:00,47.7,46.6,29.95,NNE,14,10.0,14.0,96,0.05,,-RA,0.05,5.00,VWS V14.00,2013-05-22 01:40:00,
2013-05-21 20:45:00,47.7,46.6,29.95,NNE,12,20.0,20.0,96,0.05,,-RA,0.05,5.00,VWS V14.00,2013-05-22 01:45:00,
2013-05-21 20:50:00,47.9,46.8,29.95,NNE,19,10.0,20.0,96,0.05,,-RA,0.05,5.00,VWS V14.00,2013-05-22 01:50:00,
2013-05-21 20:55:00,48.0,46.6,29.95,NNE,19,12.0,20.0,95,0.05,,-RA,0.05,0.00,VWS V14.00,2013-05-22 01:55:00,
2013-05-21 21:00:00,48.1,46.7,29.95,NNE,30,12.0,20.0,95,0.05,,-RA,0.05,0.00,VWS V14.00,2013-05-22 02:00:00,
2013-05-21 21:05:00,48.1,46.7,29.95,NE,34,10.0,17.0,95,0.00,,-RA,0.05,0.00,VWS V14.00,2013-05-22 02:05:00,
2013-05-21 21:10:00,48.2,46.6,29.95,NE,34,11.0,19.0,94,0.00,,-RA,0.05,0.00,VWS V14.00,2013-05-22 02:10:00,
2013-05-21 21:15:00,48.2,46.6,29.95,NE,37,14.0,22.0,94,0.00,,-RA,0.05,0.00,VWS V14.00,2013-05-22 02:15:00,
2013-05-21 21:20:00,48.2,46.3,29.95,NNE,24,13.0,22.0,93,0.00,,-RA,0.05,0.00,VWS V14.00,2013-05-22 02:20:00,
2013-05-21 21:25:00,48.2,46.3,29.95,NE,46,18.0,22.0,93,0.00,,-RA,0.05,0.00,VWS V14.00,2013-05-22 02:25:00,
2013-05-21 21:30:00,48.1,46.2,29.95,NE,42,19.0,19.0,93,0.00,,-RA,0.05,0.00,VWS V14.00,2013-05-22 02:30:00,
2013-05-21 21:35:00,48.1,46.2,29.96,NE,34,17.0,21.0,93,0.00,,-RA,0.05,0.00,VWS V14.00,2013-05-22 02:35:00,
2013-05-21 21:40:00,48.1,46.2,29.96,NNE,33,10.0,21.0,93,0.00,,-RA,0.05,0.00,VWS V14.00,2013-05-22 02:40:00,
2013-05-21 21:45:00,48.0,46.1,29.97,NE,34,11.0,21.0,93,0.00,,-RA,0.05,0.00,VWS V14.00,2013-05-22 02:45:00,
2013-05-21 21:50:00,47.9,46.0,29.97,NNE,24,18.0,23.0,93,0.00,,-RA,0.05,0.00,VWS V14.00,2013-05-22 02:50:00,
2013-05-21 21:55:00,47.9,46.0,29.97,NE,50,10.0,23.0,93,0.00,,-RA,0.05,0.00,VWS V14.00,2013-05-22 02:55:00,
2013-05-21 22:01:00,48.0,45.8,29.97,NE,38,13.0,22.0,92,0.00,,-RA,0.05,0.00,VWS V14.00,2013-05-22 03:01:00,
2013-05-21 22:06:00,48.1,45.9,29.96,NE,42,13.0,26.0,92,0.00,,OVC015,0.05,0.00,VWS V14.00,2013-05-22 03:06:00,
2013-05-21 22:11:00,48.1,45.9,29.96,ENE,72,11.0,26.0,92,0.00,,OVC015,0.05,0.00,VWS V14.00,2013-05-22 03:11:00,
2013-05-21 22:16:00,48.2,45.7,29.96,ENE,57,19.0,26.0,91,0.00,,OVC015,0.05,0.00,VWS V14.00,2013-05-22 03:16:00,
2013-05-21 22:21:00,48.4,45.9,29.96,NE,43,21.0,27.0,91,0.00,,OVC015,0.05,0.00,VWS V14.00,2013-05-22 03:21:00,
2013-05-21 22:26:00,48.6,45.5,29.96,NE,54,21.0,31.0,89,0.00,,OVC015,0.05,0.00,VWS V14.00,2013-05-22 03:26:00,
2013-05-21 22:31:00,48.7,45.6,29.96,NE,54,23.0,24.0,89,0.00,,OVC015,0.05,0.00,VWS V14.00,2013-05-22 03:31:00,
2013-05-21 22:36:00,48.7,45.6,29.96,ENE,57,19.0,30.0,89,0.00,,OVC015,0.05,0.00,VWS V14.00,2013-05-22 03:36:00,
2013-05-21 22:41:00,48.8,45.4,29.96,NE,53,25.0,32.0,88,0.00,,OVC015,0.05,0.00,VWS V14.00,2013-05-22 03:41:00,
2013-05-21 22:46:00,48.7,45.6,29.96,ENE,58,18.0,33.0,89,0.00,,OVC015,0.05,0.00,VWS V14.00,2013-05-22 03:46:00,
2013-05-21 22:51:00,48.7,45.6,29.97,ENE,71,18.0,33.0,89,0.00,,OVC015,0.05,0.00,VWS V14.00,2013-05-22 03:51:00,
2013-05-21 22:56:00,48.7,45.6,29.97,NE,56,17.0,33.0,89,0.00,,OVC015,0.05,0.00,VWS V14.00,2013-05-22 03:56:00,
2013-05-21 23:01:00,48.6,45.5,29.97,ENE,59,16.0,23.0,89,0.00,,OVC015,0.05,0.00,VWS V14.00,2013-05-22 04:01:00,
2013-05-21 23:02:00,48.6,45.5,29.97,ENE,62,17.0,23.0,89,0.00,,OVC015,0.05,0.00,VWS V14.00,2013-05-22 04:02:00,
2013-05-21 23:04:00,48.6,45.5,29.97,NE,53,14.0,23.0,89,0.00,,OVC015,0.05,0.00,VWS V14.00,2013-05-22 04:04:00,
2013-05-21 23:05:00,48.6,45.5,29.97,NE,53,17.0,23.0,89,0.00,,OVC015,0.05,0.00,VWS V14.00,2013-05-22 04:05:00,
2013-05-21 23:06:00,48.7,45.6,29.97,ENE,59,14.0,27.0,89,0.00,,OVC015,0.05,0.00,VWS V14.00,2013-05-22 04:06:00,
2013-05-21 23:11:00,48.6,45.5,29.97,ENE,65,9.0,27.0,89,0.00,,OVC015,0.05,0.00,VWS V14.00,2013-05-22 04:11:00,
2013-05-21 23:16:00,48.6,45.5,29.97,ENE,65,18.0,27.0,89,0.00,,OVC015,0.05,0.00,VWS V14.00,2013-05-22 04:16:00,
2013-05-21 23:21:00,48.6,45.5,29.97,NE,54,10.0,27.0,89,0.00,,OVC015,0.05,0.00,VWS V14.00,2013-05-22 04:21:00,
2013-05-21 23:26:00,48.7,45.3,29.97,ENE,57,16.0,27.0,88,0.00,,OVC015,0.05,0.00,VWS V14.00,2013-05-22 04:26:00,
2013-05-21 23:31:00,48.7,45.3,29.97,ENE,62,17.0,18.0,88,0.00,,OVC015,0.05,0.00,VWS V14.00,2013-05-22 04:31:00,
2013-05-21 23:36:00,48.6,45.2,29.97,NE,49,13.0,20.0,88,0.00,,OVC015,0.05,0.00,VWS V14.00,2013-05-22 04:36:00,
2013-05-21 23:41:00,48.5,45.4,29.97,ENE,57,13.0,21.0,89,0.00,,OVC015,0.05,0.00,VWS V14.00,2013-05-22 04:41:00,
2013-05-21 23:46:00,48.5,45.4,29.97,NE,48,17.0,22.0,89,0.00,,OVC036,0.05,0.00,VWS V14.00,2013-05-22 04:46:00,
2013-05-21 23:51:00,48.4,45.3,29.98,ENE,59,14.0,22.0,89,0.00,,OVC036,0.05,0.00,VWS V14.00,2013-05-22 04:51:00,
2013-05-21 23:56:00,48.3,45.2,29.98,ENE,66,19.0,22.0,89,0.00,,OVC036,0.05,0.00,VWS V14.00,2013-05-22 04:56:00,